Regional Weather Roundup
Issued by NWS

Home | Current Version | Previous Version | Text Only | Print | Product List | Glossary Off
Versions: 1 2 3 4 5 6 7 8 9 10 11 12 13 14 15 16 17 18 19 20 21 22 23 24 25 26 27 28 29 30 31 32 33 34 35 36 37 38 39 40 41 42 43 44 45 46 47 48 49 50

000
ASUS43 KLMK 262010
RWRKY
KENTUCKY REGIONAL WEATHER ROUNDUP
NATIONAL WEATHER SERVICE LOUISVILLE KY
400 PM EDT THU MAR 26 2015

NOTE "FAIR" INDICATES FEW OR NO CLOUDS BELOW 12,000 FEET
WITH NO SIGNIFICANT WEATHER AND/OR OBSTRUCTIONS TO VISIBILITY.

KYZ001>023-026-027-061>063-070>075-262100-
WESTERN AND SOUTH CENTRAL KENTUCKY

CITY           SKY/WX    TMP DP  RH WIND       PRES   REMARKS
PADUCAH        CLOUDY    43  37  79 N9        30.00F
HENDERSON      CLOUDY    43  34  70 NW8       30.01R
OWENSBORO      LGT RAIN  42  39  89 NW14      30.00S
HOPKINSVILLE   MIX PCPN  43  41  93 NW10G17   29.97R
BOWLING GREEN  LGT RAIN  47  43  86 NW10G17   29.92R FOG
GLASGOW        DRIZZLE   47  47  99 NW9       29.89S
$$

KYZ024-025-028>034-038-045-046-053-262100-
NORTH CENTRAL KENTUCKY

CITY           SKY/WX    TMP DP  RH WIND       PRES   REMARKS
LOUISVILLE/SDF LGT RAIN  47  43  86 NW13      29.93S FOG
LOUISVILLE/LOU RAIN      46  43  89 NW9       29.93S FOG
FORT KNOX      LGT RAIN  45  43  93 NW12      29.91S FOG
$$

KYZ035>037-039>044-047>052-055>060-089>105-262100-
NORTHEAST KENTUCKY

CITY           SKY/WX    TMP DP  RH WIND       PRES   REMARKS
LEXINGTON      LGT RAIN  45  43  93 NW12      29.87F
COVINGTON      LGT RAIN  46  41  82 NW13      29.89R
FRANKFORT      CLOUDY    45  41  86 NW7       29.88S
$$

KYZ054-064>069-076>088-106>120-262100-
SOUTHEAST KENTUCKY

CITY           SKY/WX    TMP DP  RH WIND       PRES   REMARKS
JACKSON        CLOUDY    50  47  89 VRB7G20   29.80R
LONDON         CLOUDY    53  46  77 NW13      29.81R
SOMERSET       LGT RAIN  46  45  93 N9G20     29.86S
MIDDLESBORO    PTSUNNY   68  58  68 NW12G18   29.75F
MONTICELLO     RAIN      52  48  87 NW8       29.87S FOG
$$



USA.gov is the U.S. government's official web portal to all federal, state and local government web resources and services.